Theta_e
354 354 354 354 354 355 353 353 353 353 353 353 354 352 351 351 351 350 350 350 349 349 350 349 348 348 348 348 348 348 349 350 350 350 351 351 354 359 364 363 362 361 360 359 358 357 358 358 357 356 354 355 356 357 357 357 356 356 356 356 355 355 355 355 354 353 353 353 353 352 352 352 353 352 352 352 352 352 352 352 353 353 352 351 351
354 353 353 353 353 354 354 353 352 352 352 353 353 352 351 350 350 352 349 349 350 349 353 350 350 350 348 348 348 349 348 349 349 349 351 352 355 359 365 362 360 361 361 360 359 357 358 359 358 355 356 356 354 355 356 357 357 356 356 356 356 355 355 355 355 355 355 354 354 353 353 353 352 353 353 352 353 352 352 352 352 353 353 352 352
354 353 353 353 353 352 352 351 350 350 353 354 355 354 351 349 349 347 348 348 347 348 350 346 347 347 348 348 348 348 350 350 349 349 352 353 354 356 364 362 362 363 361 361 359 358 358 358 357 357 356 356 355 355 356 356 355 355 356 355 356 356 355 354 354 355 355 355 354 354 354 353 353 354 354 353 353 354 353 353 353 353 353 353 353
354 353 352 352 352 352 351 349 349 350 355 353 353 354 352 350 350 350 351 348 346 346 347 345 343 344 340 340 346 348 349 349 348 349 351 351 353 355 359 362 362 360 360 361 359 357 358 358 356 355 357 357 356 355 354 354 355 355 355 356 356 356 356 356 356 355 355 355 355 355 355 354 353 354 354 353 354 354 354 354 353 353 353 353 353
353 353 359 352 352 352 350 352 350 352 354 355 355 354 353 351 349 354 347 346 346 343 344 340 336 336 335 336 343 346 348 347 347 348 350 351 352 353 355 360 361 361 361 360 358 358 358 357 357 356 356 357 358 355 354 352 352 355 355 354 356 356 356 355 355 356 356 355 355 355 355 355 355 355 355 355 355 354 354 354 354 354 354 353 353
355 353 353 352 352 352 351 351 352 353 352 353 351 350 351 348 347 346 352 343 337 336 335 334 335 335 332 331 337 343 344 345 345 347 348 350 351 352 353 357 357 358 359 359 358 357 358 357 356 355 357 357 358 358 355 354 354 354 355 353 354 355 355 355 355 355 355 355 355 355 355 355 355 355 355 354 355 355 354 354 354 354 354 354 354
356 355 354 353 352 352 352 352 352 353 352 353 350 351 350 348 349 343 337 335 334 339 336 333 334 335 337 340 335 338 342 345 344 345 346 347 350 353 353 354 355 356 359 356 359 359 358 356 357 356 357 358 357 357 357 356 355 356 356 355 355 354 356 355 355 355 355 355 355 355 355 356 355 355 355 355 354 355 355 354 355 354 354 354 354
356 356 354 353 353 353 353 353 353 354 353 351 350 347 348 348 347 342 336 331 337 335 336 335 336 338 338 337 338 341 338 338 342 345 347 349 351 353 353 354 353 354 360 353 353 357 359 357 357 358 358 358 357 357 356 356 356 356 356 357 355 354 355 355 355 354 354 354 355 355 355 355 355 355 355 356 355 355 355 355 355 354 354 354 354
357 357 356 354 353 354 354 354 355 354 351 348 349 350 347 349 343 344 331 330 333 335 333 335 337 338 338 338 339 342 337 338 341 344 348 346 347 351 352 352 352 363 353 350 350 352 358 359 359 358 357 358 357 356 355 356 356 356 355 355 355 354 354 354 353 353 353 354 354 355 355 355 355 355 356 354 354 353 355 355 355 355 354 355 355
358 358 356 356 355 355 355 355 355 353 349 347 347 349 346 342 339 336 334 330 331 333 333 333 337 339 338 339 339 339 339 340 344 351 344 345 347 350 351 350 352 352 351 348 347 348 350 355 358 357 358 357 357 357 356 355 355 355 354 355 355 355 354 354 353 354 354 354 354 354 354 355 355 355 355 355 354 353 353 353 354 354 355 355 355
359 359 357 358 356 354 354 354 355 352 349 347 343 346 344 340 336 332 336 331 331 332 333 333 336 338 341 339 339 338 338 347 343 342 342 345 348 352 351 349 349 350 349 348 347 346 346 347 348 349 353 357 357 357 356 355 355 355 354 354 354 354 354 353 353 353 352 352 353 354 354 354 354 354 353 354 355 355 355 354 353 355 354 353 353
359 359 357 358 353 352 353 354 353 350 345 342 339 340 339 336 331 330 331 337 336 337 335 338 333 333 345 337 337 337 339 345 340 342 346 345 350 350 350 349 347 348 349 348 347 347 347 347 352 348 350 355 357 357 356 354 355 355 355 355 355 355 352 354 352 351 350 351 351 353 353 352 354 354 353 353 353 353 353 353 353 354 354 354 354
360 359 357 362 355 352 352 352 352 350 345 342 340 339 335 334 334 340 331 332 333 333 334 332 330 329 331 331 333 339 349 342 338 338 341 345 347 348 348 347 344 347 348 348 348 350 350 348 347 345 347 347 351 356 355 354 354 354 354 354 354 352 352 353 353 351 349 351 351 352 351 351 351 352 354 354 353 353 353 353 353 353 352 353 354
361 360 359 358 354 352 351 352 350 348 344 340 336 343 338 332 332 331 334 331 329 334 335 330 325 325 326 328 331 330 339 338 337 336 340 342 344 343 344 344 344 346 347 347 347 348 347 345 346 346 345 345 345 347 349 348 351 352 353 354 353 353 352 352 352 350 350 350 351 350 348 349 351 351 352 351 350 351 351 351 351 352 352 352 353
361 362 359 358 355 352 351 351 350 350 341 336 337 336 330 329 330 332 332 334 334 337 332 327 323 329 328 329 323 323 332 328 333 335 338 338 340 342 342 342 344 345 346 345 343 343 345 343 343 344 343 343 344 345 347 352 349 352 352 352 353 353 352 351 351 352 352 350 350 351 350 350 349 350 350 348 348 349 351 351 351 350 351 352 351
361 361 360 358 355 353 351 349 348 347 338 335 334 333 331 331 330 334 332 330 328 331 340 331 327 328 324 323 322 321 318 321 325 329 333 333 337 336 339 341 343 344 343 342 341 340 340 341 341 341 341 342 342 343 345 341 352 352 353 353 352 352 353 352 352 351 351 352 352 352 351 351 351 350 350 349 351 349 350 350 350 350 350 351 350
361 361 361 357 355 353 350 349 347 343 339 335 333 332 334 333 334 336 331 330 329 330 333 334 328 328 328 325 320 319 317 321 324 324 329 329 330 334 340 341 342 341 341 338 337 338 339 339 339 339 340 340 341 342 342 341 340 348 345 352 349 349 349 350 350 349 349 349 348 349 350 350 350 351 351 351 350 350 347 345 348 350 350 350 351
361 361 361 358 354 353 349 347 344 342 339 335 334 333 333 330 333 336 332 331 333 329 329 335 341 341 331 325 324 321 321 323 318 318 329 329 331 333 337 339 339 340 335 335 335 335 341 339 338 338 338 338 340 340 337 334 343 332 329 336 347 345 344 345 347 349 348 348 347 347 347 347 347 347 347 348 349 349 349 348 348 348 348 350 350
360 361 360 359 354 351 349 346 344 341 342 336 334 334 335 335 335 333 334 340 332 328 328 328 329 331 334 334 337 332 329 325 318 318 317 322 324 325 327 332 335 334 334 334 335 334 337 340 338 338 338 339 339 338 334 334 344 339 346 347 344 342 341 343 344 346 346 344 343 343 342 343 343 343 343 343 344 345 347 347 347 347 348 349 349
360 360 360 358 354 349 348 345 342 339 341 335 335 333 335 336 339 335 335 337 333 331 328 327 327 326 339 333 335 334 329 326 324 321 318 316 318 324 323 326 330 332 335 334 334 335 333 336 337 337 338 338 338 337 333 332 332 334 340 344 343 342 342 341 342 342 343 343 342 341 342 342 342 342 342 343 343 343 343 343 344 345 345 346 346
359 359 359 357 356 349 347 344 342 338 344 335 334 333 334 336 337 336 337 334 332 333 331 329 326 327 325 326 324 325 326 328 329 327 320 315 316 318 318 322 324 324 329 332 332 332 334 335 338 339 342 340 339 337 335 332 332 331 340 344 345 345 345 343 342 343 342 342 342 342 342 342 342 343 343 343 343 343 343 343 343 344 344 344 344
357 357 358 356 355 351 347 344 342 339 344 336 335 333 334 336 338 337 336 335 336 335 332 331 330 328 327 326 321 321 324 324 323 322 322 319 318 318 319 318 318 320 325 328 329 330 331 332 337 339 339 339 339 338 333 332 332 334 337 344 345 345 345 344 344 343 344 342 341 342 342 342 342 342 343 343 343 343 343 343 343 343 343 343 343
356 356 357 355 354 352 348 345 343 344 345 336 335 336 336 337 337 336 336 336 335 333 339 332 331 330 325 326 324 323 323 321 322 321 321 318 319 321 322 320 318 317 322 327 329 326 329 329 331 337 337 338 338 337 335 331 337 337 340 344 346 346 345 344 344 343 345 343 340 340 341 341 342 342 342 343 342 342 342 342 341 341 341 340 340
355 355 354 355 353 351 350 346 344 341 341 337 336 338 338 337 336 336 335 336 334 338 334 331 329 328 327 326 327 326 325 321 323 324 322 318 320 318 319 320 321 320 324 326 329 326 324 326 328 333 335 336 337 338 337 335 333 339 341 344 346 347 346 344 344 343 344 343 341 339 340 340 341 341 342 342 343 342 342 341 340 340 339 339 339
353 353 354 353 352 350 348 345 343 341 340 336 335 339 338 336 336 336 334 334 335 335 331 331 329 327 327 326 326 328 328 325 326 324 322 322 321 317 320 321 317 320 322 323 323 326 326 325 325 328 330 333 335 336 336 335 332 338 343 342 343 347 346 346 345 344 344 343 342 340 338 339 340 341 341 341 341 341 341 341 340 340 339 339 339
353 353 354 353 352 351 349 346 345 342 340 337 336 338 337 337 337 336 335 335 334 334 332 331 328 328 328 326 326 327 327 329 328 326 324 322 318 318 320 318 319 320 320 322 322 324 324 326 325 325 327 328 331 332 334 335 335 340 344 341 338 344 346 344 344 342 343 342 342 342 340 338 338 339 340 340 340 341 342 342 342 340 339 339 338
353 354 354 352 351 350 348 346 344 341 341 337 338 338 338 338 338 337 337 336 334 336 332 331 331 329 329 329 329 327 327 331 328 328 326 325 322 321 322 319 318 314 319 317 318 321 322 324 328 327 326 329 328 330 332 333 338 341 344 344 337 341 344 343 342 342 342 342 341 342 343 342 340 339 340 342 342 343 342 341 342 341 340 340 339
354 354 353 352 351 349 349 346 343 341 340 337 336 337 336 336 337 337 336 339 335 335 334 332 332 332 332 329 330 330 331 332 329 328 327 326 325 324 324 320 317 313 312 316 314 318 321 323 325 328 328 330 330 330 335 337 334 341 345 341 337 335 342 343 341 340 340 341 341 341 341 341 341 340 340 341 342 342 342 342 342 341 341 340 340
353 353 352 352 351 349 348 346 342 341 339 338 336 337 336 336 337 336 336 337 337 335 334 334 333 333 331 330 331 331 330 332 331 330 329 328 328 326 325 322 318 314 311 312 309 315 320 326 324 325 329 331 332 330 332 333 336 338 336 340 338 332 335 338 339 337 338 338 338 338 339 340 340 340 341 341 340 340 340 341 342 341 340 339 338
353 353 352 351 350 352 347 346 342 340 340 339 337 336 337 335 335 337 337 337 337 336 336 335 334 333 334 332 331 330 331 332 330 332 330 329 327 327 325 324 322 319 314 314 313 315 318 322 324 325 326 327 331 331 331 332 338 340 337 339 337 333 334 335 337 338 338 338 337 336 337 338 338 339 338 338 337 337 339 340 340 339 340 340 340
352 351 350 350 349 348 347 345 342 340 339 339 338 337 337 335 335 335 336 336 336 335 335 336 335 335 334 333 332 331 330 332 330 331 330 330 328 328 325 325 325 323 319 316 314 317 322 322 323 326 327 327 330 330 331 331 336 337 335 334 334 336 337 335 336 336 336 336 335 334 333 333 334 335 335 336 336 337 338 339 339 338 339 339 339
351 351 350 349 348 347 346 345 343 340 339 339 338 337 337 336 336 335 335 336 336 335 335 336 337 335 333 333 332 332 330 330 329 330 330 330 330 328 328 327 325 325 324 319 318 320 322 323 322 325 327 329 331 330 330 330 334 342 335 335 335 341 338 335 338 337 335 334 334 333 331 330 331 333 334 335 336 338 339 338 337 336 337 337 338
351 351 350 349 348 347 345 344 343 340 339 339 338 337 336 336 335 336 335 335 336 335 335 335 336 334 334 333 332 333 331 331 330 331 330 330 330 330 330 328 326 325 324 322 320 322 323 324 326 327 328 330 328 326 328 327 328 328 336 334 334 334 333 333 334 337 337 334 332 331 331 330 330 331 332 334 335 337 338 339 337 335 335 335 334
351 350 350 349 348 347 345 343 343 341 339 339 339 338 336 336 334 336 335 334 335 335 335 334 335 335 334 332 332 332 331 332 331 330 331 330 330 328 327 329 327 328 327 325 322 320 323 322 324 325 326 329 328 325 327 328 328 329 328 328 331 332 333 333 333 333 337 335 332 330 330 329 330 330 331 332 333 333 334 335 334 332 333 332 331
351 351 350 348 347 346 345 343 342 341 340 339 339 339 337 336 335 334 335 334 334 334 334 335 335 335 334 333 333 332 333 331 331 331 331 331 331 331 330 330 329 328 329 328 325 323 323 325 324 324 325 326 328 329 328 329 330 328 327 328 329 330 332 332 331 332 335 334 332 331 330 329 330 330 329 331 331 330 331 329 328 329 328 327 327
351 351 350 349 347 345 344 343 341 341 340 339 338 339 338 337 336 335 334 334 334 334 335 335 335 335 335 333 333 333 333 332 331 330 330 331 331 331 330 330 330 329 329 330 329 328 326 325 325 327 325 324 326 328 329 330 329 328 328 329 329 328 328 330 330 330 332 333 332 331 330 329 329 328 328 328 327 326 325 324 324 325 325 325 325
351 351 350 349 347 345 344 343 341 340 340 339 338 338 339 339 337 336 335 334 334 334 335 335 339 335 335 334 334 333 333 332 331 331 330 330 331 330 330 330 330 331 331 331 330 329 327 326 326 324 323 324 326 326 327 327 328 327 328 328 329 329 329 329 330 331 333 331 331 331 330 329 329 328 328 327 327 325 324 324 323 323 323 323 323
352 351 350 348 347 345 345 344 342 340 340 340 339 339 339 339 338 337 336 335 334 334 335 335 336 336 336 335 334 334 333 332 331 331 331 331 330 330 329 329 330 330 329 329 330 329 329 329 327 327 323 325 324 326 327 328 327 326 327 328 328 328 328 328 329 331 332 331 331 331 330 330 330 329 328 328 327 325 325 324 323 322 321 320 318
352 351 350 348 348 347 345 344 343 342 340 340 339 339 339 338 338 337 336 335 335 335 335 335 335 336 336 335 335 335 334 333 332 331 331 330 331 330 331 330 330 329 329 329 329 328 329 328 327 326 327 327 327 327 328 328 328 327 326 325 325 328 328 327 327 330 331 331 332 333 332 331 330 329 323 323 325 325 326 325 323 322 321 319 317
353 352 351 349 348 347 346 345 344 343 341 340 339 339 339 339 338 337 337 336 336 335 335 335 335 335 336 336 336 335 335 334 333 332 331 331 331 331 331 331 330 329 329 328 327 328 328 327 326 326 326 327 326 327 328 326 325 325 326 325 324 325 327 327 327 327 329 329 328 329 331 331 329 329 325 325 326 326 326 326 327 327 324 321 319
354 353 352 351 348 346 346 345 344 343 342 341 340 339 339 338 338 337 337 337 336 335 335 335 335 335 335 336 335 335 336 340 338 336 335 335 332 331 331 331 331 329 329 328 328 326 326 326 326 326 325 326 326 326 325 323 324 325 326 326 325 326 327 327 328 328 328 327 328 328 328 329 328 328 328 327 328 330 329 330 329 331 329 323 321
353 353 352 351 350 347 345 344 344 343 343 342 336 328 331 339 338 338 338 337 336 336 336 335 335 335 335 335 337 342 343 344 340 333 328 329 332 334 333 332 332 330 329 328 327 327 327 326 326 327 326 326 327 327 327 327 328 326 324 323 322 324 324 324 325 326 328 327 326 325 327 329 328 327 326 326 327 329 328 327 327 328 328 326 324
353 353 353 351 349 348 346 345 343 343 343 342 330 326 328 331 338 338 338 337 337 337 336 335 335 335 335 335 335 341 344 344 342 335 331 329 329 329 331 332 334 333 330 329 329 330 329 328 329 328 327 327 328 328 328 328 328 327 325 325 324 323 321 320 319 323 326 326 325 323 324 326 325 324 324 325 326 326 327 326 329 329 326 325 324
352 353 352 351 350 349 348 346 344 343 343 333 326 325 327 327 332 340 338 337 338 337 336 336 335 335 335 334 334 335 339 339 339 339 335 331 328 328 328 328 329 332 333 334 332 330 329 328 328 328 328 327 328 328 328 326 326 326 326 325 323 322 320 319 318 319 323 327 323 321 322 325 326 324 323 325 326 326 327 326 326 327 325 324 323
352 352 351 351 350 349 348 346 345 344 343 331 325 324 325 325 328 335 339 339 338 337 337 336 335 334 333 333 333 334 337 346 344 338 336 336 331 329 328 329 328 328 327 328 330 335 333 330 329 329 329 328 327 328 329 327 326 323 323 321 321 321 322 320 321 321 324 326 323 321 321 324 322 323 322 324 324 325 325 326 325 325 324 323 322
351 351 351 351 351 350 349 347 346 345 344 329 323 322 322 323 326 334 339 338 338 337 337 336 335 333 332 332 332 333 333 338 338 334 333 331 330 330 330 330 330 332 328 324 324 325 329 332 331 329 331 330 328 329 331 329 325 324 322 321 322 323 323 322 323 323 324 325 323 322 320 322 323 321 319 321 322 322 323 323 323 323 323 322 322
350 350 350 350 351 350 350 349 347 346 346 326 320 320 320 320 324 329 340 338 337 336 337 336 335 334 333 333 333 333 333 334 335 335 332 330 329 330 330 330 330 331 331 332 329 328 328 328 329 329 330 330 330 329 329 328 327 326 325 324 324 324 323 321 321 322 322 323 322 319 314 316 315 315 318 319 321 321 322 321 322 322 322 320 321
351 351 351 351 350 350 350 349 348 346 346 322 319 319 318 318 324 336 338 337 336 336 335 335 335 334 334 334 333 333 334 334 335 333 335 332 330 329 328 328 328 329 330 332 329 331 333 330 329 329 330 330 328 331 330 326 324 324 326 325 323 322 321 320 320 321 319 319 319 317 314 314 316 317 317 319 319 318 319 319 320 320 319 319 319
349 349 349 350 351 350 350 349 347 347 346 325 318 316 316 317 324 338 337 336 335 335 335 334 334 334 334 334 334 333 333 332 330 324 327 333 329 328 327 327 327 327 329 333 327 324 324 323 322 323 322 321 320 319 317 318 323 323 320 318 319 318 317 317 319 315 315 316 316 318 316 314 316 316 316 317 318 318 318 319 318 318 317 316 315
349 349 350 350 350 350 349 349 348 347 346 326 314 314 314 316 325 337 337 336 336 335 334 334 334 334 336 342 340 334 333 332 325 321 323 331 328 327 326 325 325 326 328 332 333 330 323 319 318 318 318 318 319 319 319 318 317 322 322 319 318 315 316 316 315 316 316 317 319 321 314 315 316 312 313 313 314 314 316 315 315 315 317 313 313
351 351 350 350 349 350 350 349 339 344 347 328 313 313 313 315 329 336 336 336 334 334 333 332 332 333 333 341 343 334 332 329 320 319 320 326 328 326 324 323 324 325 327 327 326 325 324 325 325 326 325 321 322 320 325 321 318 321 322 322 320 317 317 316 316 314 313 313 316 320 314 310 311 310 311 309 305 307 310 312 313 313 312 313 314
Wind_Speed
4 4 3 4 4 3 3 4 3 4 3 4 3 4 4 3 3 2 1 2 2 2 1 1 2 3 2 3 3 3 3 2 3 6 3 4 4 6 12 12 13 13 13 13 12 13 13 13 13 11 11 10 10 10 10 10 10 9 9 9 9 9 8 8 8 8 7 7 7 8 5 7 4 4 5 7 6 6 5 5 5 6 4 5 7
4 3 3 4 4 3 3 4 4 4 3 4 4 3 4 3 3 3 1 0 0 2 2 3 2 3 3 3 4 4 3 3 4 4 3 4 4 5 11 12 13 12 12 13 13 12 13 14 14 11 12 10 10 10 10 10 10 10 10 10 10 9 9 9 9 8 8 8 7 8 6 8 6 7 7 8 7 7 7 6 6 5 6 6 6
4 4 4 4 4 4 4 4 4 5 4 5 3 4 3 3 3 2 2 1 1 1 0 2 3 4 3 3 5 4 4 3 3 3 5 5 4 3 5 12 12 11 11 12 12 12 11 13 12 11 13 11 12 11 10 9 9 9 9 9 9 8 8 9 10 10 9 9 9 9 7 7 8 9 8 8 8 8 8 7 6 6 6 6 6
4 4 5 4 5 5 5 4 5 4 4 4 3 2 2 2 2 1 1 1 1 1 2 3 3 5 3 4 4 4 4 3 3 3 4 2 4 3 3 5 10 9 10 11 10 11 12 12 11 9 11 11 12 8 7 9 9 10 9 11 10 9 8 7 7 7 9 10 10 10 9 10 10 11 10 10 10 9 9 8 8 8 7 7 7
5 5 4 5 4 4 4 5 5 4 3 2 1 1 0 1 2 1 1 1 0 2 2 1 1 4 1 1 2 2 3 3 2 3 4 2 2 3 3 2 3 9 11 10 10 11 9 8 9 7 9 9 8 9 12 10 10 10 11 10 10 10 10 9 9 9 8 8 9 10 10 10 10 10 10 10 10 10 9 9 9 8 8 8 8
4 4 4 4 4 4 5 5 5 4 2 2 2 1 1 1 1 0 2 1 2 2 3 3 3 3 1 2 1 4 2 3 3 3 3 2 1 2 3 1 3 3 3 8 8 7 9 8 5 5 8 9 8 9 10 12 14 12 12 13 11 11 11 11 10 10 10 9 8 8 10 11 11 11 11 11 11 11 10 10 10 9 9 9 9
5 5 4 5 5 5 5 6 5 3 3 2 2 0 0 1 0 1 2 2 2 2 3 2 2 2 2 0 2 3 3 4 3 3 3 2 1 1 1 2 2 2 3 3 5 8 8 7 7 8 10 9 9 9 10 10 10 11 13 13 12 11 11 11 12 11 10 10 10 9 9 10 11 11 11 11 11 11 11 11 11 10 10 10 10
5 5 5 5 5 5 6 5 3 3 3 2 2 2 1 0 0 1 1 2 2 3 3 3 2 3 0 0 1 1 6 4 3 3 2 3 3 2 2 3 2 2 4 2 2 2 6 7 8 8 9 10 9 9 10 9 9 9 10 11 12 12 12 12 12 11 12 12 11 11 11 11 11 11 12 12 12 11 11 11 11 11 11 11 10
6 5 5 5 5 5 5 4 3 3 3 2 2 2 1 0 1 1 1 2 1 1 2 2 3 2 2 3 1 0 2 4 3 3 3 3 3 3 4 3 2 5 2 2 2 2 3 5 7 8 7 8 8 8 9 9 8 9 9 9 10 11 11 11 12 13 12 12 12 12 11 11 12 12 12 12 11 11 11 11 11 11 11 11 10
5 5 5 5 5 5 4 4 3 3 3 2 2 2 1 2 1 1 1 2 1 0 2 1 2 2 2 2 1 1 1 0 3 2 4 3 3 4 4 2 3 1 2 2 2 2 2 3 5 5 7 8 8 7 8 8 7 8 8 8 9 9 9 11 12 12 13 13 13 13 13 12 12 12 12 12 12 12 12 11 12 12 12 12 11
5 5 5 5 5 4 4 3 3 4 3 3 2 1 2 1 3 2 0 2 2 2 3 1 1 1 1 2 2 2 1 1 1 3 4 3 3 3 2 2 1 1 2 2 2 2 1 2 2 1 2 7 8 7 7 6 6 6 7 8 8 9 9 9 10 12 13 12 12 12 13 13 12 13 13 13 13 11 12 13 14 12 12 12 13
6 5 5 5 5 4 4 3 4 4 4 3 2 4 4 3 3 3 1 0 1 0 1 1 2 2 1 2 2 1 2 2 2 1 1 2 3 2 3 1 1 1 2 2 2 1 2 2 2 1 1 3 6 7 6 4 4 5 6 7 7 8 7 7 8 10 8 11 13 11 12 13 13 13 13 13 12 12 12 12 13 13 14 13 12
6 6 6 5 5 4 4 3 4 4 4 4 4 5 4 5 4 1 2 0 1 0 0 2 2 1 2 2 2 3 1 3 2 2 2 2 2 3 2 2 1 1 0 1 1 1 1 1 1 1 0 0 2 4 3 2 2 3 4 5 7 7 7 6 6 3 6 9 11 9 9 12 14 13 13 12 12 11 12 12 12 13 13 13 13
6 6 6 6 5 5 4 5 4 4 4 3 3 3 3 3 3 2 1 1 2 2 0 1 1 2 2 0 2 3 1 3 3 2 2 2 2 2 2 2 2 1 1 1 0 0 1 2 2 2 2 3 2 3 3 2 3 3 4 5 5 4 4 4 4 6 5 6 10 8 8 11 13 13 12 11 10 11 11 11 12 12 12 13 13
7 7 6 6 6 5 5 5 4 4 3 3 3 3 3 4 4 4 1 0 1 1 1 1 2 1 1 2 1 1 2 3 2 4 1 3 2 2 2 2 2 2 1 1 1 1 1 2 2 2 2 2 2 2 2 2 0 1 2 3 3 3 3 4 5 7 6 7 9 8 8 9 13 13 10 7 8 10 10 9 11 12 12 12 12
7 7 6 6 6 6 5 5 5 4 6 5 4 4 3 2 3 2 3 1 1 1 1 1 3 4 2 1 1 2 2 1 2 2 2 2 2 2 1 2 2 1 1 2 2 2 2 2 2 2 2 2 2 2 2 1 2 3 3 2 6 6 4 2 2 2 0 3 3 2 4 7 9 6 9 9 8 9 10 8 10 11 12 11 12
7 8 7 7 6 5 5 5 5 5 5 6 5 6 5 4 5 3 3 4 2 1 1 1 2 0 5 3 2 0 2 1 2 2 3 2 1 1 2 3 3 3 2 2 1 1 2 2 2 1 2 2 2 2 1 0 3 1 1 2 2 2 3 4 3 3 3 4 4 4 5 5 5 5 6 5 5 9 6 9 12 10 9 10 10
7 7 7 6 6 6 5 6 5 5 6 6 5 4 4 3 4 4 4 2 5 2 0 1 2 1 2 1 3 3 4 2 2 1 1 2 2 1 0 2 3 3 2 1 1 1 1 2 2 2 1 2 2 2 1 1 1 1 2 0 3 2 1 0 2 2 2 2 3 3 4 5 5 6 6 7 6 6 3 6 9 7 7 8 6
7 7 7 7 6 6 6 6 6 6 5 5 5 5 5 4 3 3 4 3 3 3 4 2 1 1 1 1 1 1 4 5 2 3 2 2 2 2 0 0 0 2 3 3 2 1 1 2 2 2 1 1 2 2 1 1 2 3 3 3 4 4 3 3 2 3 2 2 2 3 4 4 4 4 4 5 5 5 6 5 4 4 5 5 5
7 7 7 7 6 6 7 6 6 6 6 6 6 5 4 2 3 3 3 4 5 6 4 3 4 1 1 3 2 3 3 3 3 6 5 5 1 2 1 1 1 2 3 3 3 3 3 2 2 2 2 2 2 2 3 2 1 1 2 6 5 5 5 4 4 4 4 3 3 3 3 4 4 4 4 4 4 3 4 4 4 5 5 6 5
7 8 8 7 7 7 7 6 6 6 5 6 4 5 5 5 4 3 4 3 4 4 5 5 3 4 2 1 3 4 3 3 3 3 3 4 1 2 2 1 1 3 4 3 2 2 2 3 3 3 3 3 2 3 3 2 3 3 4 6 6 6 5 5 5 6 5 5 5 5 5 4 4 4 4 4 5 4 3 3 3 4 4 4 4
7 7 7 7 8 7 7 8 8 7 6 6 5 4 4 5 6 6 5 5 3 5 6 6 5 4 4 5 3 2 2 1 2 3 3 2 6 4 4 6 5 5 3 4 4 3 2 2 3 3 3 3 3 3 3 3 3 3 4 7 7 7 6 6 6 7 7 6 6 6 5 5 4 5 5 5 5 5 5 4 4 4 4 5 5
7 7 7 7 8 7 7 7 6 6 6 6 6 6 6 5 6 5 6 6 5 4 3 4 5 4 3 5 6 6 5 3 3 1 2 1 3 1 1 3 5 4 4 4 4 4 2 2 3 4 4 5 4 4 4 4 5 5 8 8 8 7 7 7 7 8 7 7 7 7 7 6 6 5 6 6 6 5 5 5 5 5 5 5 5
7 7 8 8 8 7 7 6 7 6 7 6 6 6 6 5 5 6 6 5 4 4 4 5 4 5 4 4 5 4 4 3 4 5 5 3 5 3 3 0 0 2 2 1 2 3 3 4 5 5 5 5 5 4 4 4 5 9 7 8 8 8 8 8 8 8 8 7 7 7 8 8 7 7 7 7 7 6 6 6 6 5 5 5 5
8 9 9 10 8 8 8 8 7 7 7 6 6 6 6 6 6 6 6 6 6 6 6 6 6 6 6 3 3 4 5 2 5 5 2 5 5 3 0 1 2 1 1 1 2 2 4 6 5 5 5 6 5 5 5 5 5 8 10 5 10 8 8 8 8 8 9 8 8 9 9 9 9 9 8 8 8 8 8 7 7 7 6 6 6
10 10 9 9 9 9 9 8 8 7 7 7 7 6 6 7 6 6 6 6 5 5 6 5 5 4 3 5 3 4 3 3 4 5 5 5 3 4 3 1 1 0 2 1 1 1 2 4 5 5 4 5 6 5 5 6 6 9 11 7 6 9 9 9 10 10 10 10 9 9 10 10 11 10 9 9 10 10 10 9 9 8 8 8 7
10 10 8 9 10 8 8 8 8 7 7 7 6 6 6 6 6 6 5 5 6 6 5 5 6 4 3 5 5 3 3 4 5 5 5 5 6 5 5 3 0 2 1 2 2 1 3 2 2 4 6 5 6 6 7 6 8 10 11 6 5 8 11 11 12 11 11 11 11 11 10 11 12 12 11 11 11 11 11 11 10 10 10 9 9
9 8 9 10 9 9 9 9 8 7 7 7 7 7 6 7 6 6 6 4 6 6 5 5 5 5 4 3 3 4 4 5 5 5 5 5 4 5 5 4 5 3 1 2 1 2 1 2 1 3 3 4 4 5 6 6 5 10 10 5 5 6 10 13 13 12 11 11 11 12 12 12 12 12 12 13 12 11 11 11 11 11 10 10 10
8 8 9 9 9 10 9 9 8 7 7 8 8 7 7 7 7 7 7 5 6 7 5 6 5 5 4 5 5 5 4 3 4 4 4 3 3 5 5 6 5 3 1 1 2 2 1 2 1 0 2 2 3 3 3 5 7 7 5 5 6 5 8 12 13 12 12 12 12 12 12 12 12 13 13 14 14 13 13 12 12 11 11 11 12
9 8 9 10 10 10 10 9 8 7 9 8 8 7 7 7 7 7 7 6 6 4 5 6 6 5 4 4 4 4 3 4 5 4 4 5 5 5 5 4 6 5 4 2 4 3 2 1 2 1 1 2 1 1 3 3 5 6 4 4 5 5 9 12 12 12 12 12 12 12 12 12 12 13 13 13 13 14 13 13 13 13 12 11 12
9 9 9 9 10 10 9 9 8 9 8 8 8 7 7 7 7 7 6 6 6 6 6 6 6 6 5 6 4 4 3 4 3 3 3 4 5 5 5 5 4 4 5 3 1 3 2 3 2 2 1 2 1 0 1 3 4 4 3 3 4 8 11 9 12 11 11 12 12 12 12 12 12 12 13 13 13 14 12 12 14 14 14 14 14
9 10 10 11 11 11 10 10 9 9 9 8 8 8 8 8 7 7 6 7 7 7 7 6 5 6 6 6 5 5 4 3 3 3 4 4 4 5 5 5 4 4 5 5 5 6 2 3 3 3 2 2 4 4 5 3 3 4 4 4 6 8 6 5 8 10 10 12 13 13 13 13 13 13 13 13 13 13 12 15 14 14 14 14 14
10 11 11 11 11 11 11 11 10 9 9 9 8 8 8 8 7 7 6 8 8 7 7 7 5 5 5 5 5 5 4 5 5 5 4 4 3 4 4 5 5 3 4 4 3 5 3 3 3 3 2 1 3 2 3 3 4 4 3 4 4 4 5 6 6 9 11 12 13 14 14 14 14 14 13 13 13 13 13 14 15 15 15 15 15
10 11 12 11 11 11 11 11 10 10 10 10 9 8 9 9 8 6 7 8 8 7 6 7 6 5 5 5 5 5 5 6 5 5 5 5 4 4 3 5 5 5 4 4 4 2 5 1 2 2 2 3 3 2 3 4 5 3 3 4 3 4 5 5 6 7 12 12 13 13 13 14 14 14 14 13 14 14 15 15 14 15 14 14 14
10 11 11 11 11 11 11 11 10 10 11 10 9 9 10 10 10 9 7 8 8 8 9 9 8 6 6 6 7 6 5 5 5 5 4 5 4 5 5 4 5 5 5 5 4 4 5 6 3 2 3 3 4 5 3 4 4 3 4 4 4 4 4 5 6 5 10 12 13 14 14 14 14 14 13 13 14 14 14 14 13 14 14 14 14
11 10 10 11 11 11 12 11 11 11 11 10 10 10 11 11 10 10 8 7 8 9 10 9 8 8 9 7 7 6 5 6 5 5 5 4 5 5 4 4 5 5 5 5 5 5 5 5 3 3 3 2 4 4 4 3 4 4 4 5 4 4 4 4 6 6 8 13 14 14 14 14 14 14 14 14 14 14 13 13 12 12 13 13 13
11 10 10 10 11 12 12 13 12 11 11 11 11 11 11 10 10 9 9 8 9 9 10 9 9 9 9 9 8 6 6 7 5 5 5 5 5 5 6 5 5 5 4 5 6 5 5 6 5 3 2 2 3 4 3 4 4 3 3 4 5 5 5 5 4 5 7 11 13 14 14 14 14 14 14 14 14 14 13 12 12 12 13 13 13
11 11 11 10 11 13 12 12 12 12 11 12 12 12 12 10 9 8 8 9 10 10 10 9 9 8 9 9 7 8 8 8 6 5 5 6 5 6 5 5 5 4 5 4 5 5 6 7 6 6 3 5 4 4 4 4 5 6 6 6 5 4 4 7 7 5 4 4 4 5 7 10 12 14 13 13 14 14 13 13 13 13 13 13 14
12 12 12 12 11 12 13 12 12 12 12 11 12 12 11 10 9 9 9 10 10 10 8 7 7 8 9 8 8 9 9 8 7 7 7 6 6 7 7 6 5 5 5 6 5 5 6 6 5 6 6 5 4 6 5 3 3 3 5 6 6 5 3 4 7 6 4 5 6 9 10 10 8 7 10 13 14 14 14 13 13 13 13 14 14
13 13 13 13 12 11 12 12 12 11 11 12 12 11 11 10 9 9 10 11 11 9 6 6 8 8 9 8 8 8 8 8 8 7 7 7 6 6 6 5 5 5 6 6 4 5 5 5 6 6 5 5 2 4 1 1 2 4 4 5 7 7 6 4 5 7 5 3 6 6 6 6 7 8 10 10 12 13 13 12 12 12 13 14 14
12 13 12 12 12 12 12 12 12 11 12 12 11 11 11 11 9 10 12 11 10 7 6 7 8 8 7 8 8 8 8 9 12 10 10 9 7 7 6 5 5 6 6 5 5 5 5 6 7 5 5 5 5 3 4 3 6 8 2 2 5 6 6 7 8 6 6 7 6 5 7 6 6 6 4 4 5 6 6 7 7 10 12 12 13
13 12 12 12 12 13 13 13 12 11 12 11 13 18 16 11 10 10 10 9 7 7 9 9 8 8 9 8 8 12 13 13 12 13 13 13 12 9 7 7 7 6 6 6 6 6 6 6 7 6 6 7 5 5 5 6 5 3 3 2 4 7 5 6 7 6 4 4 5 7 7 5 3 5 4 5 5 4 5 5 6 7 9 11 12
14 13 12 13 13 13 14 14 14 12 12 11 17 17 19 17 12 10 9 7 8 10 11 9 10 10 8 8 7 10 11 12 11 14 13 13 13 14 11 8 8 8 7 7 7 6 6 7 6 5 6 7 6 4 5 5 3 5 5 4 6 4 5 5 7 5 1 4 3 2 5 4 1 4 5 6 6 5 5 6 10 11 12 12 13
14 12 13 14 14 13 13 13 14 14 13 13 17 19 19 18 15 11 8 8 10 10 9 10 9 7 7 7 6 6 7 8 8 9 12 13 13 11 10 9 10 12 12 10 8 6 6 7 6 7 4 5 6 4 4 2 5 4 4 4 5 4 3 3 3 5 3 2 2 2 6 4 4 4 6 7 6 5 6 9 11 12 12 12 12
12 13 15 14 14 14 14 14 15 14 12 14 18 20 19 18 18 13 9 11 11 10 9 8 7 6 6 7 6 6 6 12 10 7 7 7 10 13 13 14 14 15 14 13 11 9 5 6 6 6 6 4 4 5 3 3 2 3 3 3 3 3 3 5 6 6 7 1 2 3 6 6 3 4 6 6 6 5 7 8 12 12 12 12 12
14 15 14 15 14 14 14 15 15 12 12 14 19 19 19 19 19 17 12 10 7 6 7 8 7 7 8 8 7 7 6 7 7 8 7 6 6 6 7 6 6 7 10 11 10 8 5 6 5 6 5 4 6 5 4 2 2 4 3 5 3 4 5 6 5 5 5 1 4 4 5 6 5 6 6 7 5 5 6 9 13 13 13 13 14
15 15 15 15 15 15 15 14 12 11 11 15 19 20 20 20 22 19 9 3 4 5 7 7 8 8 8 8 8 8 7 7 7 9 8 8 7 7 7 6 6 6 5 5 6 6 6 6 6 7 7 5 6 6 4 3 5 4 4 4 4 4 3 2 3 5 6 5 4 3 5 4 3 3 5 6 6 6 5 8 11 13 13 14 14
12 11 11 12 14 14 14 13 12 12 11 17 20 21 20 21 23 14 13 10 6 7 6 6 7 7 8 8 8 8 8 9 10 15 12 9 8 8 7 7 5 3 2 5 8 7 6 6 7 6 5 5 5 4 3 3 3 2 1 1 1 1 2 4 5 4 5 3 4 4 3 3 3 4 5 6 5 6 6 6 9 12 13 13 14
13 13 14 14 13 14 14 13 13 12 10 16 20 20 20 21 18 9 8 9 7 7 6 4 5 6 7 7 7 8 8 8 11 15 15 13 8 8 7 6 5 3 3 4 8 9 10 7 6 6 6 5 5 6 6 5 3 2 2 0 4 2 2 4 5 3 5 3 2 4 3 4 4 4 5 4 5 6 6 7 6 8 11 12 13
14 15 13 12 12 13 13 13 14 13 11 13 20 19 20 22 17 12 13 10 10 10 9 7 7 7 8 14 11 9 9 9 13 16 16 12 8 8 7 5 3 3 2 2 2 1 0 2 3 5 6 6 5 6 6 5 4 4 4 5 3 2 4 4 5 4 5 4 4 3 1 5 3 2 4 4 3 4 5 7 7 7 10 10 12
14 12 11 12 12 11 12 13 15 15 12 11 17 18 21 23 20 14 10 11 12 12 9 9 7 6 7 11 15 12 10 10 15 16 16 12 8 7 5 3 3 4 3 2 2 1 1 2 1 1 1 1 2 2 2 6 6 7 6 6 4 4 5 5 5 3 3 3 4 3 2 3 2 4 2 3 3 5 4 6 7 7 6 6 6
Wind_Direction
217 227 219 231 240 244 236 245 247 255 254 258 235 247 260 265 269 274 248 277 323 315 319 256 274 274 255 274 235 219 219 203 182 213 207 219 211 219 211 202 202 210 212 219 220 214 218 215 218 214 218 209 205 203 198 198 198 201 197 200 202 205 207 206 206 210 209 219 216 218 200 223 188 218 235 238 227 227 225 229 202 215 211 243 241
218 221 206 234 235 238 242 244 242 250 246 254 233 224 235 246 258 253 248 321 324 314 328 309 279 264 259 252 261 247 223 193 196 223 229 222 214 216 214 205 200 207 215 217 222 219 218 219 217 206 226 218 215 211 213 209 207 205 202 204 205 207 209 210 209 214 214 218 226 229 208 214 197 219 220 236 235 237 239 236 234 217 225 242 256
213 213 215 223 229 227 235 240 255 250 228 238 230 216 209 210 219 257 293 7 353 355 358 274 287 280 263 237 244 243 230 213 185 167 196 203 203 220 224 212 203 202 213 219 222 223 222 227 222 218 215 212 218 213 213 220 218 218 217 207 205 210 216 215 216 216 215 216 221 227 213 224 225 224 228 231 234 238 241 241 240 242 241 243 249
211 212 210 217 225 224 233 227 242 249 227 224 230 194 189 219 258 295 349 60 19 250 240 217 249 259 247 241 228 210 229 205 187 170 226 203 186 200 222 210 210 203 213 219 224 230 229 225 226 203 226 216 221 214 238 237 225 221 220 219 211 209 203 202 212 223 226 224 223 224 219 217 222 226 228 230 232 236 239 242 243 241 243 245 247
212 214 215 209 218 225 232 232 239 240 224 213 197 128 44 350 321 7 14 65 295 342 307 12 298 292 177 213 158 229 216 191 189 167 234 223 194 198 208 191 187 204 210 214 224 224 228 257 248 215 229 227 223 208 206 221 248 237 234 231 217 216 219 222 222 221 223 230 234 231 229 227 223 225 228 230 233 236 237 241 244 244 246 249 252
209 218 216 213 220 223 225 236 237 230 217 200 193 141 160 264 290 48 31 50 21 351 19 15 351 317 360 67 154 200 204 214 175 205 198 202 193 205 198 132 163 173 192 209 223 223 233 214 242 230 222 231 230 237 231 216 223 227 232 238 233 225 224 224 224 224 225 229 229 234 237 233 230 228 228 230 233 237 238 240 241 244 247 248 251
213 213 216 212 217 223 225 228 227 218 210 199 183 157 173 248 343 12 59 12 5 48 40 7 341 34 320 34 159 179 188 204 176 184 188 184 123 49 50 166 166 147 160 167 218 219 225 228 208 223 223 220 225 231 236 240 235 234 237 233 234 235 231 231 230 226 223 223 231 236 238 239 239 236 235 235 231 234 239 244 241 241 243 245 246
212 208 217 211 210 217 221 223 218 206 194 175 139 194 216 226 317 152 74 9 27 0 52 359 337 41 166 54 86 188 199 199 186 180 165 139 112 141 172 198 152 162 183 160 140 214 217 223 228 235 237 229 226 228 241 238 240 241 240 241 245 241 238 239 240 238 236 230 226 228 233 239 243 243 245 241 237 235 233 237 245 246 245 244 245
210 203 205 205 207 214 218 210 206 194 176 165 166 184 180 222 311 96 132 151 80 351 17 13 343 356 13 66 15 358 191 186 186 171 144 128 132 159 192 188 173 189 123 141 153 162 211 209 216 234 244 245 235 235 237 240 239 240 242 238 238 244 249 248 248 247 243 240 237 231 230 231 236 240 246 247 248 252 245 235 241 243 244 244 245
206 198 199 195 197 202 204 199 186 170 155 144 196 177 142 145 236 352 99 120 115 56 304 322 338 343 22 46 19 4 25 91 170 154 142 136 159 181 202 179 167 149 122 144 163 146 180 205 206 223 233 243 242 230 236 237 243 245 243 242 241 241 245 246 249 252 251 244 241 241 238 237 236 238 241 245 246 245 247 255 247 244 246 247 245
200 196 192 197 195 199 192 186 168 162 154 164 192 188 150 162 178 243 25 219 152 190 222 197 15 344 5 23 24 347 349 48 63 158 181 164 174 177 135 200 149 121 145 156 145 172 174 200 185 159 243 241 253 251 247 247 250 251 248 246 248 241 238 239 255 266 258 259 257 249 247 243 242 244 243 245 245 244 244 241 246 244 246 250 253
196 193 192 189 192 196 191 175 172 157 157 164 187 177 176 173 198 171 190 15 34 286 245 129 56 29 15 21 17 6 12 68 69 106 86 149 170 133 165 155 117 145 154 148 153 194 205 179 177 175 204 236 252 266 268 266 271 267 268 257 253 261 256 245 234 243 267 263 252 256 260 256 248 242 241 246 252 254 252 248 247 248 248 247 247
193 188 193 190 193 195 182 184 169 166 168 193 191 186 182 176 163 124 154 111 321 338 162 111 120 31 12 25 4 2 12 61 35 69 100 120 118 141 135 135 122 145 127 122 160 177 169 125 99 86 61 8 326 298 294 325 304 299 292 278 256 254 270 269 269 288 247 279 280 259 269 275 264 252 244 244 246 252 254 253 249 248 251 247 244
191 192 189 185 191 193 191 187 171 173 186 184 174 170 156 139 129 104 22 149 227 227 143 90 21 156 141 5 344 337 26 77 62 14 102 96 120 122 127 127 132 133 89 90 44 54 71 83 91 88 70 68 63 64 47 35 13 335 303 299 282 271 246 274 289 279 270 266 272 282 271 267 265 263 258 254 264 266 263 262 259 255 255 261 257
191 190 187 191 192 186 196 181 177 170 155 172 165 171 165 165 158 158 181 52 270 272 114 152 174 109 94 86 347 38 337 6 13 22 2 114 99 120 130 124 125 125 126 126 113 89 72 77 92 99 102 99 89 83 78 77 196 260 302 327 328 287 265 236 245 254 262 246 252 260 269 265 264 268 284 304 283 277 271 272 274 273 267 262 263
190 188 191 191 190 190 186 179 180 176 165 170 176 192 174 164 154 173 134 152 316 291 87 172 135 129 87 81 204 113 44 325 359 333 342 99 121 136 136 124 126 116 136 171 163 137 106 98 106 118 124 123 118 110 111 190 203 109 110 55 48 38 24 23 157 174 32 35 31 316 286 292 285 287 269 253 258 261 264 277 280 277 276 276 279
191 190 188 192 190 183 182 187 175 179 170 171 178 191 190 179 173 161 164 159 216 286 341 83 113 151 141 91 30 36 209 235 82 8 354 47 38 126 162 141 151 182 197 206 123 118 113 95 91 114 142 143 140 151 149 63 96 125 108 145 82 45 15 12 16 344 326 330 350 354 348 349 357 352 337 323 289 276 283 288 285 282 295 297 289
193 193 193 185 188 185 185 182 181 178 181 181 179 174 177 164 185 179 187 206 155 132 21 7 54 57 158 162 170 173 178 227 87 158 348 12 29 29 187 176 158 185 222 224 225 200 145 139 133 156 172 162 173 185 184 168 137 87 75 287 181 181 142 259 278 293 299 308 322 327 318 325 334 338 348 356 353 349 332 237 262 289 268 279 293
196 193 193 188 184 185 186 188 185 182 184 170 177 187 188 191 160 171 193 161 128 142 166 232 2 38 57 358 55 49 143 127 191 116 89 341 6 29 15 354 204 188 207 223 228 216 211 157 162 164 189 207 207 201 174 215 186 173 198 206 195 206 196 207 239 257 264 271 280 299 307 309 315 321 331 338 336 341 355 357 339 341 343 327 332
192 194 193 187 182 187 187 185 184 187 179 181 186 195 180 151 167 196 167 170 168 155 188 185 147 229 34 52 32 32 38 83 119 159 149 142 221 340 352 21 306 255 234 218 211 206 196 187 172 184 202 225 234 213 210 230 259 245 240 207 207 201 210 211 215 229 248 267 270 272 278 289 303 307 313 319 329 328 334 342 336 336 338 335 330
195 193 192 189 186 186 184 185 187 188 184 178 187 177 179 165 158 159 173 191 186 174 147 190 154 183 123 37 60 44 26 57 89 80 130 125 208 183 188 359 348 272 254 250 258 250 223 201 196 190 204 214 226 228 222 234 243 242 248 238 217 209 211 219 224 231 236 246 256 257 263 277 283 297 306 309 311 313 318 322 326 325 322 322 327
196 198 194 194 193 185 183 188 191 185 182 181 175 174 179 170 177 180 180 172 203 167 176 175 185 180 166 155 106 39 44 37 42 78 58 97 164 205 188 169 186 244 243 234 232 244 226 203 213 203 220 219 221 226 228 228 231 232 242 243 235 227 219 222 231 237 241 245 252 260 264 269 279 286 294 299 304 311 314 318 321 319 319 326 329
190 198 199 195 198 190 187 193 187 185 182 175 179 180 184 177 182 179 177 171 177 186 162 169 175 169 167 159 170 161 169 172 200 188 133 125 83 142 174 195 192 201 244 224 223 235 227 211 211 218 222 225 219 223 228 232 228 231 232 237 241 235 232 229 234 243 249 248 252 258 266 270 276 278 281 285 290 296 301 306 310 313 316 318 321
193 196 200 198 197 195 194 188 187 186 191 184 178 178 177 175 173 183 187 183 170 166 157 164 174 179 176 171 172 157 142 158 179 156 140 180 142 171 155 167 330 238 288 282 254 240 240 225 224 219 219 222 222 221 231 234 238 235 233 238 240 239 239 238 240 245 251 248 249 261 269 272 274 277 279 278 281 281 286 288 288 293 299 302 305
200 200 204 195 192 194 193 192 194 193 189 180 182 176 173 176 182 189 182 175 180 172 168 183 177 172 191 183 155 156 185 186 134 145 122 129 132 123 256 120 173 254 321 66 213 279 223 228 218 227 218 220 228 223 225 230 238 240 232 239 239 241 240 243 244 248 251 251 246 249 253 258 262 263 268 276 278 280 281 281 280 282 285 286 285
196 204 199 192 195 198 195 199 196 188 186 187 180 181 178 181 183 187 185 189 176 178 183 182 181 194 148 150 176 191 198 160 151 136 142 125 122 149 157 13 72 264 298 7 324 241 265 235 227 216 217 225 229 222 221 225 231 238 234 228 244 241 238 239 243 246 250 252 250 248 252 256 258 257 255 256 262 264 266 270 273 276 282 286 287
200 202 188 194 197 194 197 198 194 187 185 185 184 182 187 183 182 192 188 178 182 179 187 172 182 182 172 172 177 191 200 172 155 172 153 161 155 164 142 146 319 15 338 331 344 232 238 299 227 206 211 217 224 227 224 221 225 226 230 227 230 240 236 236 238 242 245 249 254 256 254 255 259 263 263 260 259 260 260 262 268 271 272 275 277
200 190 194 192 194 195 197 201 192 186 187 184 185 186 186 184 187 188 196 177 177 184 192 183 189 184 188 176 147 201 195 176 179 170 179 167 150 146 139 141 155 246 351 330 339 286 242 228 313 222 221 222 228 224 240 235 238 233 230 226 224 234 236 234 237 240 243 245 249 252 256 259 261 261 260 262 262 262 262 263 265 266 267 267 271
196 192 191 195 195 195 197 199 189 188 186 189 189 187 183 190 190 190 197 185 178 189 184 185 197 181 181 172 187 187 195 181 166 165 167 144 157 161 160 159 159 139 211 290 285 227 289 192 168 261 177 192 209 229 232 229 232 228 229 227 226 230 240 239 238 240 244 249 250 251 253 256 259 260 259 260 262 263 263 263 262 265 268 271 274
193 192 191 193 196 197 199 197 190 184 192 192 191 187 184 195 196 195 192 175 184 189 190 187 191 184 189 183 180 195 191 167 183 177 166 168 159 168 171 154 148 161 176 179 267 216 235 286 190 237 337 21 143 175 190 236 254 247 234 237 233 234 241 241 241 242 245 247 250 253 255 256 256 256 258 260 260 260 260 260 262 265 264 265 265
191 190 192 194 195 199 200 199 186 190 194 195 189 189 189 194 197 197 187 175 181 192 198 189 197 182 188 191 188 202 171 190 184 179 174 161 172 165 160 144 169 151 162 148 200 283 196 231 285 245 255 306 350 19 257 237 238 232 240 229 233 236 237 242 242 246 251 255 257 257 255 252 250 250 252 253 257 259 257 254 259 263 265 267 267
195 191 192 195 194 197 200 199 192 190 193 197 191 194 191 199 194 193 191 176 184 196 200 203 194 189 187 190 187 195 184 176 183 184 181 188 168 167 165 166 173 167 149 156 183 255 241 205 243 297 258 276 318 315 301 292 263 253 228 233 237 244 250 252 259 256 254 257 259 255 252 248 246 247 249 252 255 255 254 259 261 262 263 265 266
192 193 196 197 196 197 198 200 195 190 195 197 195 195 197 201 200 197 185 185 188 197 197 208 204 188 192 196 195 198 173 177 192 190 188 189 176 176 163 158 164 163 150 163 198 260 277 240 224 242 283 311 309 232 267 284 296 288 271 251 256 255 254 256 260 263 258 253 251 250 248 246 247 250 250 250 253 255 256 257 261 261 262 263 265
193 196 196 196 197 196 200 202 196 194 197 200 196 194 199 202 204 198 195 187 191 194 196 207 201 195 187 202 207 198 180 188 189 191 195 182 176 167 178 175 178 185 192 157 201 213 271 240 268 280 270 200 238 223 217 264 275 274 273 269 264 239 241 251 255 255 258 258 256 254 251 250 252 254 257 259 259 259 260 261 263 265 265 263 263
199 200 197 196 195 197 202 202 196 198 199 199 199 198 202 201 201 202 197 188 187 191 199 205 197 190 195 202 209 197 177 185 194 203 194 195 182 184 197 190 190 196 189 192 168 221 257 273 221 240 231 210 208 256 236 226 240 246 265 259 227 218 226 231 236 248 256 256 256 255 254 255 256 258 259 259 260 260 262 262 262 263 266 268 267
199 203 199 197 194 198 203 203 199 199 198 199 200 203 206 203 203 200 191 189 192 197 199 199 194 192 200 201 210 199 184 189 196 196 196 194 188 196 200 203 198 198 198 193 203 203 225 254 274 220 245 227 267 248 249 243 234 246 226 264 275 262 237 209 214 229 242 244 250 251 255 257 260 262 263 263 262 261 260 261 263 265 266 265 264
200 196 200 196 198 200 204 204 200 200 200 198 201 206 209 208 204 197 190 192 199 201 200 198 193 193 198 204 200 192 187 199 199 192 186 189 193 189 201 203 199 205 199 197 208 207 213 232 262 268 253 265 249 272 256 264 269 252 242 239 257 267 280 269 255 243 244 234 233 242 247 253 258 263 267 268 267 264 263 264 265 266 266 265 264
198 198 197 197 200 204 208 206 202 202 200 200 203 206 208 206 202 197 191 196 204 205 204 197 194 192 197 202 193 190 193 201 197 193 187 194 189 196 204 205 205 200 206 214 208 208 214 233 233 273 263 245 276 260 252 229 249 275 288 285 293 283 288 300 289 282 278 279 290 263 250 251 255 256 259 261 261 262 265 268 270 271 270 270 270
199 200 199 200 204 205 208 206 206 203 202 203 206 207 208 204 197 194 195 201 207 211 208 196 198 198 199 197 195 194 197 198 193 192 192 195 193 203 202 202 203 196 210 220 212 212 217 233 245 238 258 253 228 263 276 261 264 250 261 291 291 284 294 272 284 282 273 275 259 254 258 261 259 253 245 246 250 254 256 257 260 261 265 267 268
203 202 200 201 203 204 206 208 209 204 204 207 207 206 207 201 190 195 202 204 208 210 199 198 201 203 202 201 201 199 197 195 194 193 185 195 193 203 207 199 196 197 214 222 216 217 227 233 237 244 233 257 257 254 354 33 316 297 243 228 255 275 281 271 257 277 288 287 290 292 273 266 261 250 248 246 245 245 243 245 247 251 254 256 258
203 204 202 200 200 203 207 208 209 205 207 210 206 202 203 198 190 198 205 207 204 196 199 207 206 203 203 204 201 199 201 196 194 190 192 188 182 200 210 194 201 202 219 218 214 214 233 236 252 240 253 252 244 251 256 221 219 239 255 166 241 261 273 285 275 255 254 274 280 282 281 270 278 280 279 290 274 267 269 266 261 259 256 255 256
202 201 201 201 202 203 205 209 209 208 212 212 207 200 199 193 191 202 204 205 192 192 203 209 209 204 205 201 203 201 200 198 196 199 199 196 196 196 198 193 199 201 211 213 212 215 223 236 242 240 245 252 243 218 234 237 233 263 279 180 225 258 269 269 281 270 240 228 259 274 278 285 261 287 297 287 282 277 272 271 258 255 263 263 264
201 200 199 201 203 205 207 208 209 212 214 212 202 197 200 190 188 202 198 186 190 202 207 203 210 208 206 203 202 201 196 200 204 204 205 202 205 212 209 191 191 191 199 209 219 205 213 229 242 232 234 256 260 226 227 249 224 218 229 214 232 247 249 263 283 304 281 180 224 247 274 277 248 276 281 269 267 264 254 253 259 264 266 271 273
202 198 201 203 202 204 208 211 213 214 216 206 194 197 195 187 189 198 184 183 201 207 204 207 212 207 203 202 200 196 194 195 196 204 208 208 209 216 215 209 205 207 206 204 211 207 207 222 236 238 230 236 261 249 242 222 241 234 226 219 225 222 234 246 248 267 263 152 195 245 274 281 279 253 261 266 268 260 258 263 267 270 270 272 272
197 201 205 202 205 205 207 211 216 215 215 196 194 194 190 182 187 190 183 200 199 203 200 205 209 200 193 191 197 197 201 197 196 196 191 196 202 205 211 218 222 222 223 225 220 216 185 200 222 245 224 221 243 252 216 213 193 235 250 225 206 197 221 253 261 265 278 230 309 269 270 273 269 265 265 268 271 275 281 277 277 281 284 285 286
202 206 204 205 207 206 207 212 215 213 212 195 193 189 186 175 177 189 205 194 187 189 198 202 198 194 190 189 191 198 198 198 184 179 174 169 168 175 195 203 210 219 217 220 227 237 223 211 206 233 241 183 233 248 237 170 184 246 237 248 233 268 257 247 248 255 271 305 271 286 279 278 271 273 273 275 273 281 277 279 283 287 289 289 288
203 205 202 205 209 209 210 211 212 210 215 191 188 189 183 169 177 191 209 174 160 189 206 199 197 193 189 189 192 196 192 191 184 176 169 171 170 179 187 204 212 212 194 175 184 197 202 208 215 228 248 234 233 247 253 215 212 224 214 227 236 241 259 283 295 255 268 249 227 186 251 262 278 276 267 276 286 282 272 277 277 277 278 279 279
206 205 207 210 211 211 212 209 209 213 209 186 189 189 178 170 178 183 199 208 189 213 214 207 201 191 189 190 193 198 194 192 191 179 174 170 175 183 198 216 234 230 194 190 203 204 197 194 200 214 231 237 234 236 231 206 210 207 229 307 342 254 271 275 274 292 280 262 180 188 241 262 252 253 274 278 283 278 273 269 270 267 269 270 272
202 203 207 207 208 209 210 207 207 212 209 193 189 187 173 165 171 170 190 207 221 239 243 237 211 198 190 193 194 198 192 193 189 182 179 172 180 188 201 218 224 234 216 197 211 213 217 217 218 231 247 262 261 258 260 247 216 167 126 4 272 191 215 271 271 269 269 279 255 188 200 262 257 239 272 265 265 272 276 274 274 273 271 273 278
205 207 206 207 208 210 206 206 204 208 211 193 190 183 161 163 155 169 199 186 206 232 244 245 230 206 200 196 193 191 189 194 185 185 183 177 184 194 202 205 224 253 258 179 167 190 266 237 230 239 245 252 260 267 263 255 181 173 165 224 228 162 225 232 265 253 290 302 263 166 164 236 260 243 254 276 293 256 260 266 269 276 277 273 270
210 207 205 208 210 207 206 205 202 203 209 191 190 170 161 163 161 180 181 190 197 218 216 222 224 210 208 208 197 192 191 190 184 188 187 183 190 190 180 169 218 247 232 180 176 162 115 123 120 104 62 246 211 208 232 229 198 193 197 218 212 183 229 242 249 293 316 288 273 161 199 276 308 267 233 313 281 264 253 240 253 261 271 280 284